Time,TemperatureF,DewpointF,PressureIn,WindDirection,WindDirectionDegrees,WindSpeedMPH,WindSpeedGustMPH,Humidity,HourlyPrecipIn,Conditions,Clouds,dailyrainin,SoftwareType,DateUTC
2013-02-13 00:00:00,44.2,40.9,29.92,ENE,71,0.0,0.0,88,0.00,CLR,,0.10,WeatherDisplay:10.37,2013-02-13 06:00:00,
2013-02-13 00:05:00,44.2,41.2,29.92,ENE,71,0.0,0.0,89,0.00,RA,,0.00,WeatherDisplay:10.37,2013-02-13 06:05:00,
2013-02-13 00:10:00,44.1,41.1,29.92,ENE,71,0.0,0.0,89,0.00,CLR,,0.00,WeatherDisplay:10.37,2013-02-13 06:10:00,
2013-02-13 00:15:00,44.1,41.1,29.91,ENE,71,0.0,0.0,89,0.00,CLR,,0.00,WeatherDisplay:10.37,2013-02-13 06:15:00,
2013-02-13 00:20:00,43.9,40.9,29.91,ENE,71,0.0,0.0,89,0.01,RA,,0.01,WeatherDisplay:10.37,2013-02-13 06:20:00,
2013-02-13 00:25:00,43.9,40.9,29.90,ENE,71,0.0,0.0,89,0.01,RA,,0.01,WeatherDisplay:10.37,2013-02-13 06:25:00,
2013-02-13 00:30:00,43.9,41.2,29.90,ENE,71,0.0,0.0,90,0.01,,,0.01,WeatherDisplay:10.37,2013-02-13 06:30:00,
2013-02-13 00:35:00,43.9,41.2,29.90,ENE,71,0.0,0.0,90,0.01,CLR,,0.01,WeatherDisplay:10.37,2013-02-13 06:35:00,
2013-02-13 00:40:00,43.9,41.2,29.90,ENE,71,0.0,0.0,90,0.01,CLR,,0.01,WeatherDisplay:10.37,2013-02-13 06:40:00,
2013-02-13 00:45:00,43.9,41.2,29.90,ENE,71,0.0,0.0,90,0.01,CLR,,0.01,WeatherDisplay:10.37,2013-02-13 06:45:00,
2013-02-13 00:50:00,43.9,41.2,29.91,ENE,71,0.0,0.0,90,0.01,CLR,,0.01,WeatherDisplay:10.37,2013-02-13 06:50:00,
2013-02-13 00:55:00,43.9,40.9,29.90,ENE,71,0.0,0.0,89,0.01,CLR,,0.01,WeatherDisplay:10.37,2013-02-13 06:55:00,
2013-02-13 01:00:00,43.9,40.9,29.90,ENE,71,0.0,0.0,89,0.01,CLR,,0.01,WeatherDisplay:10.37,2013-02-13 07:00:00,
2013-02-13 01:05:00,43.9,40.9,29.89,ENE,71,0.0,0.0,89,0.01,CLR,,0.01,WeatherDisplay:10.37,2013-02-13 07:05:00,
2013-02-13 01:10:00,43.9,40.9,29.89,ENE,71,0.0,0.0,89,0.01,CLR,,0.01,WeatherDisplay:10.37,2013-02-13 07:10:00,
2013-02-13 01:15:00,43.9,40.9,29.89,ENE,71,0.0,0.0,89,0.01,CLR,,0.01,WeatherDisplay:10.37,2013-02-13 07:15:00,
2013-02-13 01:20:00,43.9,40.9,29.89,ENE,71,0.0,0.0,89,0.00,CLR,,0.01,WeatherDisplay:10.37,2013-02-13 07:20:00,
2013-02-13 01:25:00,43.9,40.9,29.89,ENE,71,0.0,0.0,89,0.00,CLR,,0.01,WeatherDisplay:10.37,2013-02-13 07:25:00,
2013-02-13 01:30:00,43.9,40.9,29.89,ENE,71,0.0,0.0,89,0.00,CLR,,0.01,WeatherDisplay:10.37,2013-02-13 07:30:00,
2013-02-13 01:35:00,43.9,40.6,29.88,ENE,71,0.0,0.0,88,0.00,CLR,,0.01,WeatherDisplay:10.37,2013-02-13 07:35:00,
2013-02-13 01:40:00,43.9,40.9,29.88,ENE,71,0.0,0.0,89,0.00,CLR,,0.01,WeatherDisplay:10.37,2013-02-13 07:40:00,
2013-02-13 01:45:00,43.9,40.6,29.88,ENE,71,0.0,0.0,88,0.00,CLR,,0.01,WeatherDisplay:10.37,2013-02-13 07:45:00,
2013-02-13 01:50:00,43.9,40.6,29.88,ENE,71,0.0,0.0,88,0.00,CLR,,0.01,WeatherDisplay:10.37,2013-02-13 07:50:00,
2013-02-13 01:55:00,43.9,40.6,29.87,ENE,71,0.0,0.0,88,0.00,CLR,,0.01,WeatherDisplay:10.37,2013-02-13 07:55:00,
2013-02-13 02:00:00,43.9,40.6,29.87,ENE,71,0.0,0.0,88,0.00,CLR,,0.01,WeatherDisplay:10.37,2013-02-13 08:00:00,
2013-02-13 02:05:00,43.9,40.6,29.87,ENE,71,0.0,0.0,88,0.00,CLR,,0.01,WeatherDisplay:10.37,2013-02-13 08:05:00,
2013-02-13 02:10:00,43.9,40.6,29.87,ENE,71,0.0,0.0,88,0.00,CLR,,0.01,WeatherDisplay:10.37,2013-02-13 08:10:00,
2013-02-13 02:15:00,43.9,40.6,29.86,ENE,71,0.0,0.0,88,0.00,CLR,,0.01,WeatherDisplay:10.37,2013-02-13 08:15:00,
2013-02-13 02:20:00,44.1,40.8,29.86,ENE,71,0.0,0.0,88,0.00,CLR,,0.01,WeatherDisplay:10.37,2013-02-13 08:20:00,
2013-02-13 02:25:00,44.1,40.8,29.86,ENE,71,0.0,0.0,88,0.00,CLR,,0.01,WeatherDisplay:10.37,2013-02-13 08:25:00,
2013-02-13 02:30:00,44.1,40.8,29.86,ENE,71,0.0,0.0,88,0.00,CLR,,0.01,WeatherDisplay:10.37,2013-02-13 08:30:00,
2013-02-13 02:35:00,44.2,40.9,29.85,ENE,71,0.0,0.0,88,0.00,CLR,,0.01,WeatherDisplay:10.37,2013-02-13 08:35:00,
2013-02-13 02:40:00,44.2,41.2,29.85,ENE,71,0.0,0.0,89,0.00,CLR,,0.01,WeatherDisplay:10.37,2013-02-13 08:40:00,
2013-02-13 02:45:00,44.2,41.2,29.85,ENE,71,0.0,0.0,89,0.00,CLR,,0.01,WeatherDisplay:10.37,2013-02-13 08:45:00,
2013-02-13 02:50:00,44.2,41.2,29.84,ENE,71,0.0,0.0,89,0.00,CLR,,0.01,WeatherDisplay:10.37,2013-02-13 08:50:00,
2013-02-13 02:55:00,44.2,41.2,29.84,ENE,71,0.0,0.0,89,0.00,CLR,,0.01,WeatherDisplay:10.37,2013-02-13 08:55:00,
2013-02-13 03:00:00,44.2,41.2,29.84,ENE,71,0.0,0.0,89,0.00,CLR,,0.01,WeatherDisplay:10.37,2013-02-13 09:00:00,
2013-02-13 03:05:00,44.2,41.2,29.84,ENE,71,0.0,0.0,89,0.00,CLR,,0.01,WeatherDisplay:10.37,2013-02-13 09:05:00,
2013-02-13 03:10:00,44.1,41.4,29.83,ENE,71,0.0,0.0,90,0.00,CLR,,0.01,WeatherDisplay:10.37,2013-02-13 09:10:00,
2013-02-13 03:15:00,44.2,41.5,29.83,ENE,71,0.0,0.0,90,0.00,CLR,,0.01,WeatherDisplay:10.37,2013-02-13 09:15:00,
2013-02-13 03:20:00,44.2,41.5,29.83,ENE,71,0.0,0.0,90,0.00,CLR,,0.01,WeatherDisplay:10.37,2013-02-13 09:20:00,
2013-02-13 03:25:00,44.2,41.5,29.83,ENE,71,0.0,0.0,90,0.00,CLR,,0.01,WeatherDisplay:10.37,2013-02-13 09:25:00,
2013-02-13 03:30:00,44.2,41.7,29.83,ENE,71,1.1,0.0,91,0.00,CLR,,0.01,WeatherDisplay:10.37,2013-02-13 09:30:00,
2013-02-13 03:35:00,44.2,41.7,29.83,ENE,71,0.0,0.0,91,0.00,CLR,,0.01,WeatherDisplay:10.37,2013-02-13 09:35:00,
2013-02-13 03:40:00,44.2,41.7,29.83,ENE,71,0.0,0.0,91,0.00,CLR,,0.01,WeatherDisplay:10.37,2013-02-13 09:40:00,
2013-02-13 03:45:00,44.2,41.7,29.83,ENE,71,0.0,0.0,91,0.00,CLR,,0.01,WeatherDisplay:10.37,2013-02-13 09:45:00,
2013-02-13 03:50:00,44.2,42.0,29.82,ENE,71,0.0,0.0,92,0.00,CLR,,0.01,WeatherDisplay:10.37,2013-02-13 09:50:00,
2013-02-13 03:55:00,44.3,42.1,29.82,ENE,71,0.0,0.0,92,0.00,CLR,,0.01,WeatherDisplay:10.37,2013-02-13 09:55:00,
2013-02-13 04:00:00,44.3,42.1,29.81,ENE,71,0.0,0.0,92,0.00,CLR,,0.01,WeatherDisplay:10.37,2013-02-13 10:00:00,
2013-02-13 04:05:00,44.3,42.1,29.81,ENE,71,0.0,0.0,92,0.00,CLR,,0.01,WeatherDisplay:10.37,2013-02-13 10:05:00,
2013-02-13 04:10:00,44.3,42.1,29.82,ENE,71,0.0,0.0,92,0.00,CLR,,0.01,WeatherDisplay:10.37,2013-02-13 10:10:00,
2013-02-13 04:15:00,44.3,42.4,29.83,ENE,71,0.0,0.0,93,0.00,CLR,,0.01,WeatherDisplay:10.37,2013-02-13 10:15:00,
2013-02-13 04:20:00,44.3,42.4,29.81,ENE,71,0.0,0.0,93,0.00,CLR,,0.01,WeatherDisplay:10.37,2013-02-13 10:20:00,
2013-02-13 04:25:00,44.3,42.4,29.81,ENE,71,0.0,0.0,93,0.00,CLR,,0.01,WeatherDisplay:10.37,2013-02-13 10:25:00,
2013-02-13 04:30:00,44.3,42.4,29.81,ENE,71,0.0,0.0,93,0.00,CLR,,0.01,WeatherDisplay:10.37,2013-02-13 10:30:00,
2013-02-13 04:35:00,44.3,42.4,29.82,ENE,71,0.0,0.0,93,0.00,CLR,,0.01,WeatherDisplay:10.37,2013-02-13 10:35:00,
2013-02-13 04:40:00,44.3,42.4,29.82,ENE,71,0.0,0.0,93,0.01,RA,,0.02,WeatherDisplay:10.37,2013-02-13 10:40:00,
2013-02-13 04:45:00,44.3,42.7,29.81,ENE,71,0.0,0.0,94,0.01,RA,,0.02,WeatherDisplay:10.37,2013-02-13 10:45:00,
2013-02-13 04:50:00,44.5,42.9,29.82,ENE,71,1.1,0.0,94,0.01,,,0.02,WeatherDisplay:10.37,2013-02-13 10:50:00,
2013-02-13 04:55:00,44.5,42.9,29.82,ENE,71,0.0,0.0,94,0.01,CLR,,0.02,WeatherDisplay:10.37,2013-02-13 10:55:00,
2013-02-13 05:00:00,44.5,42.9,29.81,ENE,71,0.0,0.0,94,0.01,CLR,,0.02,WeatherDisplay:10.37,2013-02-13 11:00:00,
2013-02-13 05:05:00,44.5,42.9,29.82,ENE,71,0.0,0.0,94,0.01,CLR,,0.02,WeatherDisplay:10.37,2013-02-13 11:05:00,
2013-02-13 05:10:00,44.5,42.9,29.82,ENE,71,0.0,0.0,94,0.01,CLR,,0.02,WeatherDisplay:10.37,2013-02-13 11:10:00,
2013-02-13 05:15:00,44.5,42.9,29.82,ENE,71,0.0,0.0,94,0.02,RA,,0.03,WeatherDisplay:10.37,2013-02-13 11:15:00,
2013-02-13 05:20:00,44.5,42.9,29.82,ENE,71,0.0,0.0,94,0.02,RA,,0.03,WeatherDisplay:10.37,2013-02-13 11:20:00,
2013-02-13 05:25:00,44.5,42.9,29.82,ENE,71,0.0,0.0,94,0.02,CLR,,0.03,WeatherDisplay:10.37,2013-02-13 11:25:00,
2013-02-13 05:30:00,44.6,43.0,29.82,ENE,71,0.0,0.0,94,0.02,CLR,,0.03,WeatherDisplay:10.37,2013-02-13 11:30:00,
2013-02-13 05:35:00,44.5,42.9,29.83,ENE,71,0.0,0.0,94,0.02,CLR,,0.03,WeatherDisplay:10.37,2013-02-13 11:35:00,
2013-02-13 05:40:00,44.5,42.9,29.83,ENE,71,0.0,0.0,94,0.01,CLR,,0.03,WeatherDisplay:10.37,2013-02-13 11:40:00,
2013-02-13 05:45:00,44.5,43.2,29.82,ENE,71,0.0,0.0,95,0.01,CLR,,0.03,WeatherDisplay:10.37,2013-02-13 11:45:00,
2013-02-13 05:50:00,44.5,43.2,29.82,ENE,71,0.0,0.0,95,0.01,CLR,,0.03,WeatherDisplay:10.37,2013-02-13 11:50:00,
2013-02-13 05:55:00,44.6,43.3,29.81,ENE,71,0.0,0.0,95,0.01,CLR,,0.03,WeatherDisplay:10.37,2013-02-13 11:55:00,
2013-02-13 06:00:00,44.6,43.3,29.82,ENE,71,0.0,0.0,95,0.01,CLR,,0.03,WeatherDisplay:10.37,2013-02-13 12:00:00,
2013-02-13 06:05:00,44.6,43.3,29.83,ENE,71,0.0,0.0,95,0.01,CLR,,0.03,WeatherDisplay:10.37,2013-02-13 12:05:00,
2013-02-13 06:10:00,44.6,43.3,29.83,ENE,71,0.0,0.0,95,0.01,CLR,,0.03,WeatherDisplay:10.37,2013-02-13 12:10:00,
2013-02-13 06:15:00,44.6,43.3,29.83,ENE,71,0.0,0.0,95,0.00,CLR,,0.03,WeatherDisplay:10.37,2013-02-13 12:15:00,
2013-02-13 06:20:00,44.6,43.3,29.83,ENE,71,0.0,0.0,95,0.00,CLR,,0.03,WeatherDisplay:10.37,2013-02-13 12:20:00,
2013-02-13 06:25:00,44.6,43.3,29.83,ENE,71,0.0,0.0,95,0.00,CLR,,0.03,WeatherDisplay:10.37,2013-02-13 12:25:00,
2013-02-13 06:30:00,44.8,43.5,29.83,ENE,71,0.0,0.0,95,0.00,CLR,,0.03,WeatherDisplay:10.37,2013-02-13 12:30:00,
2013-02-13 06:35:00,44.8,43.5,29.83,ENE,71,0.0,0.0,95,0.00,CLR,,0.03,WeatherDisplay:10.37,2013-02-13 12:35:00,
2013-02-13 06:40:00,44.8,43.5,29.83,ENE,71,0.0,0.0,95,0.00,CLR,,0.03,WeatherDisplay:10.37,2013-02-13 12:40:00,
2013-02-13 06:45:00,44.8,43.5,29.83,ENE,71,0.0,0.0,95,0.01,RA,,0.04,WeatherDisplay:10.37,2013-02-13 12:45:00,
2013-02-13 06:50:00,44.8,43.5,29.83,ENE,71,0.0,0.0,95,0.01,RA,,0.04,WeatherDisplay:10.37,2013-02-13 12:50:00,
2013-02-13 06:55:00,44.9,43.6,29.83,ENE,71,0.0,0.0,95,0.01,,,0.04,WeatherDisplay:10.37,2013-02-13 12:55:00,
2013-02-13 07:00:00,44.9,43.6,29.83,ENE,71,0.0,0.0,95,0.01,CLR,,0.04,WeatherDisplay:10.37,2013-02-13 13:00:00,
2013-02-13 07:05:00,44.9,43.6,29.83,ENE,71,0.0,0.0,95,0.01,CLR,,0.04,WeatherDisplay:10.37,2013-02-13 13:05:00,
2013-02-13 07:10:00,44.9,43.6,29.82,ENE,71,0.0,0.0,95,0.01,CLR,,0.04,WeatherDisplay:10.37,2013-02-13 13:10:00,
2013-02-13 07:15:00,44.9,43.6,29.83,ENE,71,0.0,0.0,95,0.01,CLR,,0.04,WeatherDisplay:10.37,2013-02-13 13:15:00,
2013-02-13 07:20:00,45.1,43.8,29.84,ENE,71,0.0,0.0,95,0.01,CLR,,0.04,WeatherDisplay:10.37,2013-02-13 13:20:00,
2013-02-13 07:25:00,45.1,43.8,29.84,ENE,71,0.0,0.0,95,0.01,CLR,,0.04,WeatherDisplay:10.37,2013-02-13 13:25:00,
2013-02-13 07:30:00,45.1,43.8,29.85,ENE,71,0.0,0.0,95,0.01,CLR,,0.04,WeatherDisplay:10.37,2013-02-13 13:30:00,
2013-02-13 07:35:00,45.1,43.8,29.85,ENE,71,0.0,0.0,95,0.01,CLR,,0.04,WeatherDisplay:10.37,2013-02-13 13:35:00,
2013-02-13 07:40:00,45.1,43.8,29.85,ENE,71,1.1,0.0,95,0.01,CLR,,0.04,WeatherDisplay:10.37,2013-02-13 13:40:00,
2013-02-13 07:45:00,45.1,44.0,29.86,ENE,71,0.0,0.0,96,0.00,CLR,,0.04,WeatherDisplay:10.37,2013-02-13 13:45:00,
2013-02-13 07:50:00,45.1,44.0,29.86,ENE,71,1.1,0.0,96,0.00,CLR,,0.04,WeatherDisplay:10.37,2013-02-13 13:50:00,
2013-02-13 07:55:00,45.1,44.0,29.85,ENE,71,0.0,0.4,96,0.00,CLR,,0.04,WeatherDisplay:10.37,2013-02-13 13:55:00,
2013-02-13 08:00:00,45.1,44.0,29.85,ENE,71,0.0,0.0,96,0.00,CLR,,0.04,WeatherDisplay:10.37,2013-02-13 14:00:00,
2013-02-13 08:05:00,45.1,44.0,29.85,ENE,71,0.0,0.0,96,0.00,CLR,,0.04,WeatherDisplay:10.37,2013-02-13 14:05:00,
2013-02-13 08:10:00,45.1,44.0,29.85,ENE,71,0.0,0.0,96,0.01,RA,,0.05,WeatherDisplay:10.37,2013-02-13 14:10:00,
2013-02-13 08:15:00,45.1,44.0,29.85,ENE,71,0.0,0.0,96,0.01,RA,,0.05,WeatherDisplay:10.37,2013-02-13 14:15:00,
2013-02-13 08:20:00,45.2,44.1,29.85,ENE,71,1.1,0.0,96,0.01,CLR,,0.05,WeatherDisplay:10.37,2013-02-13 14:20:00,
2013-02-13 08:25:00,45.2,44.1,29.86,ENE,71,0.0,0.1,96,0.01,CLR,,0.05,WeatherDisplay:10.37,2013-02-13 14:25:00,
2013-02-13 08:30:00,45.4,44.3,29.85,ENE,71,0.0,0.0,96,0.01,CLR,,0.05,WeatherDisplay:10.37,2013-02-13 14:30:00,
2013-02-13 08:35:00,45.4,44.3,29.85,ENE,71,0.0,0.0,96,0.01,CLR,,0.05,WeatherDisplay:10.37,2013-02-13 14:35:00,
2013-02-13 08:40:00,45.5,44.4,29.85,ENE,71,0.0,0.0,96,0.01,CLR,,0.05,WeatherDisplay:10.37,2013-02-13 14:40:00,
2013-02-13 08:45:00,45.5,44.4,29.85,ENE,71,1.1,0.0,96,0.01,CLR,,0.05,WeatherDisplay:10.37,2013-02-13 14:45:00,
2013-02-13 08:50:00,45.7,44.6,29.86,ENE,71,0.0,0.0,96,0.01,CLR,,0.05,WeatherDisplay:10.37,2013-02-13 14:50:00,
2013-02-13 08:55:00,45.7,44.6,29.86,ENE,71,0.0,0.0,96,0.01,CLR,,0.05,WeatherDisplay:10.37,2013-02-13 14:55:00,
2013-02-13 09:00:00,45.8,44.7,29.86,SSW,198,2.0,2.0,96,0.01,CLR,,0.05,WeatherDisplay:10.37,2013-02-13 15:00:00,
2013-02-13 09:05:00,46.0,44.9,29.86,SW,232,1.1,1.1,96,0.01,CLR,,0.05,WeatherDisplay:10.37,2013-02-13 15:05:00,
2013-02-13 09:10:00,46.1,45.0,29.87,North,360,1.1,1.1,96,0.00,CLR,,0.05,WeatherDisplay:10.37,2013-02-13 15:10:00,
2013-02-13 09:15:00,46.2,44.8,29.87,South,186,1.1,0.0,95,0.00,CLR,,0.05,WeatherDisplay:10.37,2013-02-13 15:15:00,
2013-02-13 09:20:00,46.2,44.6,29.87,SW,226,4.6,4.6,94,0.00,CLR,,0.05,WeatherDisplay:10.37,2013-02-13 15:20:00,
2013-02-13 09:25:00,46.4,44.2,29.87,SSE,168,2.0,2.0,92,0.00,CLR,,0.05,WeatherDisplay:10.37,2013-02-13 15:25:00,
2013-02-13 09:30:00,46.5,43.7,29.88,SSE,163,2.3,2.3,90,0.00,CLR,,0.05,WeatherDisplay:10.37,2013-02-13 15:30:00,
2013-02-13 09:35:00,46.4,43.3,29.88,NNW,333,9.2,9.2,89,0.00,CLR,,0.05,WeatherDisplay:10.37,2013-02-13 15:35:00,
2013-02-13 09:40:00,46.4,42.7,29.88,West,279,3.5,3.5,87,0.00,CLR,,0.05,WeatherDisplay:10.37,2013-02-13 15:40:00,
2013-02-13 09:45:00,46.4,42.7,29.89,SW,226,3.5,3.5,87,0.00,CLR,,0.05,WeatherDisplay:10.37,2013-02-13 15:45:00,
2013-02-13 09:50:00,46.4,42.4,29.89,West,259,3.5,3.5,86,0.00,CLR,,0.05,WeatherDisplay:10.37,2013-02-13 15:50:00,
2013-02-13 09:55:00,46.5,42.5,29.89,West,264,1.0,1.0,86,0.00,CLR,,0.05,WeatherDisplay:10.37,2013-02-13 15:55:00,
2013-02-13 10:00:00,46.4,42.4,29.88,WSW,258,1.1,1.2,86,0.00,CLR,,0.05,WeatherDisplay:10.37,2013-02-13 16:00:00,
2013-02-13 10:05:00,46.4,42.1,29.88,WSW,257,0.0,0.7,85,0.00,CLR,,0.05,WeatherDisplay:10.37,2013-02-13 16:05:00,
2013-02-13 10:10:00,46.4,42.1,29.89,West,269,0.0,1.1,85,0.00,CLR,,0.05,WeatherDisplay:10.37,2013-02-13 16:10:00,
2013-02-13 10:15:00,46.4,42.1,29.88,West,263,1.1,0.0,85,0.00,CLR,,0.05,WeatherDisplay:10.37,2013-02-13 16:15:00,
2013-02-13 10:20:00,46.4,42.1,29.88,West,263,2.3,2.3,85,0.00,CLR,,0.05,WeatherDisplay:10.37,2013-02-13 16:20:00,
2013-02-13 10:25:00,46.4,41.5,29.89,SW,215,1.1,1.1,83,0.00,CLR,,0.05,WeatherDisplay:10.37,2013-02-13 16:25:00,
2013-02-13 10:30:00,46.5,41.6,29.89,SSW,199,3.5,3.5,83,0.00,CLR,,0.05,WeatherDisplay:10.37,2013-02-13 16:30:00,
2013-02-13 10:35:00,46.5,41.3,29.89,WSW,247,3.5,3.5,82,0.00,CLR,,0.05,WeatherDisplay:10.37,2013-02-13 16:35:00,
2013-02-13 10:40:00,46.7,41.8,29.89,WSW,247,0.0,0.0,83,0.00,CLR,,0.05,WeatherDisplay:10.37,2013-02-13 16:40:00,
2013-02-13 10:45:00,46.5,41.6,29.90,SSW,207,2.3,2.3,83,0.00,CLR,,0.05,WeatherDisplay:10.37,2013-02-13 16:45:00,
2013-02-13 10:51:00,46.5,41.6,29.90,SSW,208,3.5,3.5,83,0.00,CLR,,0.05,WeatherDisplay:10.37,2013-02-13 16:51:00,
2013-02-13 10:56:00,46.4,41.2,29.90,SW,228,2.3,2.3,82,0.00,CLR,,0.05,WeatherDisplay:10.37,2013-02-13 16:56:00,
2013-02-13 11:01:00,46.4,41.2,29.89,NW,315,3.5,3.5,82,0.00,CLR,,0.05,WeatherDisplay:10.37,2013-02-13 17:01:00,
2013-02-13 11:06:00,46.4,41.2,29.90,West,267,3.5,0.0,82,0.00,CLR,,0.05,WeatherDisplay:10.37,2013-02-13 17:06:00,
2013-02-13 11:11:00,46.5,41.6,29.90,SW,236,3.5,3.5,83,0.00,CLR,,0.05,WeatherDisplay:10.37,2013-02-13 17:11:00,
2013-02-13 11:16:00,46.5,41.6,29.90,WSW,238,1.1,0.0,83,0.00,CLR,,0.05,WeatherDisplay:10.37,2013-02-13 17:16:00,
2013-02-13 11:21:00,46.7,41.2,29.89,SW,225,3.5,3.5,81,0.00,CLR,,0.05,WeatherDisplay:10.37,2013-02-13 17:21:00,
2013-02-13 11:26:00,46.7,40.9,29.89,SW,236,1.1,1.1,80,0.00,CLR,,0.05,WeatherDisplay:10.37,2013-02-13 17:26:00,
2013-02-13 11:31:00,46.8,41.3,29.89,SSW,199,3.5,3.5,81,0.00,CLR,,0.05,WeatherDisplay:10.37,2013-02-13 17:31:00,
2013-02-13 11:36:00,46.8,41.0,29.89,WSW,244,2.3,2.3,80,0.00,CLR,,0.05,WeatherDisplay:10.37,2013-02-13 17:36:00,
2013-02-13 11:41:00,46.8,41.6,29.90,West,262,2.3,2.3,82,0.00,CLR,,0.05,WeatherDisplay:10.37,2013-02-13 17:41:00,
2013-02-13 11:46:00,46.7,41.5,29.90,SSE,155,3.5,3.5,82,0.00,CLR,,0.05,WeatherDisplay:10.37,2013-02-13 17:46:00,
2013-02-13 11:51:00,46.7,41.2,29.90,North,5,3.0,3.0,81,0.00,CLR,,0.05,WeatherDisplay:10.37,2013-02-13 17:51:00,
2013-02-13 11:56:00,46.7,40.9,29.90,WSW,243,4.0,4.0,80,0.00,CLR,,0.05,WeatherDisplay:10.37,2013-02-13 17:56:00,
2013-02-13 12:01:00,46.8,41.0,29.91,SW,217,3.5,3.5,80,0.00,CLR,,0.05,WeatherDisplay:10.37,2013-02-13 18:01:00,
2013-02-13 12:06:00,47.0,40.5,29.91,South,171,9.2,9.2,78,0.00,CLR,,0.05,WeatherDisplay:10.37,2013-02-13 18:06:00,
2013-02-13 12:11:00,47.0,40.8,29.91,NNW,330,5.8,5.8,79,0.00,CLR,,0.05,WeatherDisplay:10.37,2013-02-13 18:11:00,
2013-02-13 12:16:00,46.8,41.0,29.91,West,273,4.0,4.0,80,0.00,CLR,,0.05,WeatherDisplay:10.37,2013-02-13 18:16:00,
2013-02-13 12:21:00,47.0,41.1,29.90,West,277,7.0,7.0,80,0.00,CLR,,0.05,WeatherDisplay:10.37,2013-02-13 18:21:00,
2013-02-13 12:26:00,47.7,41.5,29.91,West,267,8.1,8.1,79,0.00,CLR,,0.05,WeatherDisplay:10.37,2013-02-13 18:26:00,
2013-02-13 12:31:00,48.0,41.1,29.91,WNW,285,10.4,10.4,77,0.00,CLR,,0.05,WeatherDisplay:10.37,2013-02-13 18:31:00,
2013-02-13 12:36:00,48.0,41.1,29.90,South,173,5.8,5.8,77,0.00,CLR,,0.05,WeatherDisplay:10.37,2013-02-13 18:36:00,
2013-02-13 12:41:00,48.3,41.1,29.91,WNW,287,3.5,3.5,76,0.00,CLR,,0.05,WeatherDisplay:10.37,2013-02-13 18:41:00,
2013-02-13 12:46:00,47.9,40.4,29.91,East,89,9.2,9.2,75,0.00,CLR,,0.05,WeatherDisplay:10.37,2013-02-13 18:46:00,
2013-02-13 12:51:00,47.1,39.9,29.91,South,183,6.9,6.9,76,0.00,CLR,,0.05,WeatherDisplay:10.37,2013-02-13 18:51:00,
2013-02-13 12:56:00,46.7,39.2,29.91,South,186,6.9,6.9,75,0.00,CLR,,0.05,WeatherDisplay:10.37,2013-02-13 18:56:00,
2013-02-13 13:01:00,46.2,38.4,29.92,West,276,4.6,4.6,74,0.00,CLR,,0.05,WeatherDisplay:10.37,2013-02-13 19:01:00,
2013-02-13 13:06:00,46.1,38.3,29.92,WSW,255,5.8,5.8,74,0.00,CLR,,0.05,WeatherDisplay:10.37,2013-02-13 19:06:00,
2013-02-13 13:11:00,46.0,38.9,29.93,East,92,1.0,0.0,76,0.00,CLR,,0.05,WeatherDisplay:10.37,2013-02-13 19:11:00,
2013-02-13 13:16:00,45.7,37.9,29.93,SSW,205,5.8,5.8,74,0.00,CLR,,0.05,WeatherDisplay:10.37,2013-02-13 19:16:00,
2013-02-13 13:21:00,45.4,37.2,29.94,NNE,25,0.0,0.0,73,0.00,CLR,,0.05,WeatherDisplay:10.37,2013-02-13 19:21:00,
2013-02-13 13:26:00,45.1,37.3,29.94,ENE,57,3.5,3.5,74,0.00,CLR,,0.05,WeatherDisplay:10.37,2013-02-13 19:26:00,
2013-02-13 13:31:00,44.8,37.4,29.94,WNW,302,3.5,3.5,75,0.00,CLR,,0.05,WeatherDisplay:10.37,2013-02-13 19:31:00,
2013-02-13 13:36:00,44.6,37.5,29.94,NE,48,4.6,4.6,76,0.00,CLR,,0.05,WeatherDisplay:10.37,2013-02-13 19:36:00,
2013-02-13 13:41:00,44.3,37.2,29.94,ESE,108,2.3,2.3,76,0.00,CLR,,0.05,WeatherDisplay:10.37,2013-02-13 19:41:00,
2013-02-13 13:46:00,43.9,36.5,29.94,ENE,61,2.3,2.3,75,0.00,CLR,,0.05,WeatherDisplay:10.37,2013-02-13 19:46:00,
2013-02-13 13:51:00,43.8,36.7,29.94,NNE,19,10.4,10.4,76,0.00,CLR,,0.05,WeatherDisplay:10.37,2013-02-13 19:51:00,
2013-02-13 13:56:00,43.6,36.9,29.95,NNW,327,5.8,5.8,77,0.00,CLR,,0.05,WeatherDisplay:10.37,2013-02-13 19:56:00,
2013-02-13 14:01:00,43.5,36.8,29.95,NNE,14,5.0,5.0,77,0.00,CLR,,0.05,WeatherDisplay:10.37,2013-02-13 20:01:00,
2013-02-13 14:06:00,43.1,36.0,29.96,NNE,27,5.8,5.8,76,0.00,CLR,,0.05,WeatherDisplay:10.37,2013-02-13 20:06:00,
2013-02-13 14:11:00,43.1,36.0,29.96,NNE,15,0.0,0.0,76,0.00,CLR,,0.05,WeatherDisplay:10.37,2013-02-13 20:11:00,
2013-02-13 14:16:00,42.8,35.1,29.97,SSE,147,0.0,0.0,74,0.00,CLR,,0.05,WeatherDisplay:10.37,2013-02-13 20:16:00,
2013-02-13 14:21:00,42.8,35.4,29.98,West,281,3.5,3.5,75,0.00,CLR,,0.05,WeatherDisplay:10.37,2013-02-13 20:21:00,
2013-02-13 14:26:00,42.6,35.2,29.98,East,82,3.5,3.5,75,0.00,CLR,,0.05,WeatherDisplay:10.37,2013-02-13 20:26:00,
2013-02-13 14:31:00,42.5,35.8,29.98,WNW,288,2.3,2.3,77,0.00,CLR,,0.05,WeatherDisplay:10.37,2013-02-13 20:31:00,
2013-02-13 14:36:00,42.3,35.6,29.98,West,267,0.0,0.0,77,0.00,CLR,,0.05,WeatherDisplay:10.37,2013-02-13 20:36:00,
2013-02-13 14:41:00,42.3,35.9,29.98,NE,34,9.2,9.2,78,0.00,CLR,,0.05,WeatherDisplay:10.37,2013-02-13 20:41:00,
2013-02-13 14:46:00,42.3,35.9,29.99,NNW,329,3.5,3.5,78,0.00,CLR,,0.05,WeatherDisplay:10.37,2013-02-13 20:46:00,
2013-02-13 14:51:00,42.3,36.3,29.99,NW,306,3.5,3.5,79,0.00,CLR,,0.05,WeatherDisplay:10.37,2013-02-13 20:51:00,
2013-02-13 14:56:00,42.2,35.8,29.99,WNW,286,5.8,5.8,78,0.00,CLR,,0.05,WeatherDisplay:10.37,2013-02-13 20:56:00,
2013-02-13 15:01:00,42.1,36.1,30.00,NNW,338,6.9,6.9,79,0.00,CLR,,0.05,WeatherDisplay:10.37,2013-02-13 21:01:00,
2013-02-13 15:06:00,41.8,35.8,30.00,NNE,26,5.8,5.8,79,0.00,CLR,,0.05,WeatherDisplay:10.37,2013-02-13 21:06:00,
2013-02-13 15:11:00,41.8,36.1,30.01,NNW,346,3.5,3.5,80,0.00,CLR,,0.05,WeatherDisplay:10.37,2013-02-13 21:11:00,
2013-02-13 15:16:00,41.5,35.5,30.01,NW,324,3.5,3.5,79,0.00,CLR,,0.05,WeatherDisplay:10.37,2013-02-13 21:16:00,
2013-02-13 15:21:00,41.3,35.3,30.01,North,355,1.1,1.1,79,0.00,CLR,,0.05,WeatherDisplay:10.37,2013-02-13 21:21:00,
2013-02-13 15:26:00,41.3,35.3,30.01,West,274,2.3,2.3,79,0.00,CLR,,0.05,WeatherDisplay:10.37,2013-02-13 21:26:00,
2013-02-13 15:31:00,41.3,35.6,30.02,WNW,288,0.0,0.0,80,0.00,CLR,,0.05,WeatherDisplay:10.37,2013-02-13 21:31:00,
2013-02-13 15:36:00,41.3,35.6,30.02,NNE,15,3.5,3.5,80,0.00,CLR,,0.05,WeatherDisplay:10.37,2013-02-13 21:36:00,
2013-02-13 15:41:00,41.5,35.8,30.02,NNE,27,2.3,2.3,80,0.00,CLR,,0.05,WeatherDisplay:10.37,2013-02-13 21:41:00,
2013-02-13 15:46:00,41.5,35.8,30.02,NNE,17,3.5,3.5,80,0.00,CLR,,0.05,WeatherDisplay:10.37,2013-02-13 21:46:00,
2013-02-13 15:51:00,41.5,35.5,30.02,North,11,4.6,4.6,79,0.00,CLR,,0.05,WeatherDisplay:10.37,2013-02-13 21:51:00,
2013-02-13 15:56:00,41.5,35.2,30.02,NE,40,3.5,3.5,78,0.00,CLR,,0.05,WeatherDisplay:10.37,2013-02-13 21:56:00,
2013-02-13 16:01:00,41.5,35.5,30.02,NE,38,0.0,0.0,79,0.00,CLR,,0.05,WeatherDisplay:10.37,2013-02-13 22:01:00,
2013-02-13 16:06:00,41.6,34.9,30.02,NW,309,1.1,1.1,77,0.00,CLR,,0.05,WeatherDisplay:10.37,2013-02-13 22:06:00,
2013-02-13 16:11:00,41.6,34.9,30.02,North,360,1.1,0.0,77,0.00,CLR,,0.05,WeatherDisplay:10.37,2013-02-13 22:11:00,
2013-02-13 16:16:00,41.8,35.4,30.02,North,360,0.0,0.0,78,0.00,CLR,,0.05,WeatherDisplay:10.37,2013-02-13 22:16:00,
2013-02-13 16:21:00,41.9,35.2,30.02,North,360,0.0,0.0,77,0.00,CLR,,0.05,WeatherDisplay:10.37,2013-02-13 22:21:00,
2013-02-13 16:26:00,41.9,35.2,30.03,North,360,0.0,0.0,77,0.00,CLR,,0.05,WeatherDisplay:10.37,2013-02-13 22:26:00,
2013-02-13 16:31:00,41.9,34.9,30.03,NNE,18,0.0,0.0,76,0.00,CLR,,0.05,WeatherDisplay:10.37,2013-02-13 22:31:00,
2013-02-13 16:36:00,41.9,34.9,30.03,NNE,18,0.0,0.0,76,0.00,CLR,,0.05,WeatherDisplay:10.37,2013-02-13 22:36:00,
2013-02-13 16:41:00,42.1,34.7,30.03,NNE,18,0.0,0.0,75,0.00,CLR,,0.05,WeatherDisplay:10.37,2013-02-13 22:41:00,
2013-02-13 16:46:00,42.1,34.4,30.04,NNE,18,1.0,0.0,74,0.00,CLR,,0.05,WeatherDisplay:10.37,2013-02-13 22:46:00,
2013-02-13 16:51:00,42.1,34.1,30.04,NNE,18,1.1,0.0,73,0.00,CLR,,0.05,WeatherDisplay:10.37,2013-02-13 22:51:00,
2013-02-13 16:56:00,42.1,34.7,30.04,NNE,18,0.0,0.0,75,0.00,CLR,,0.05,WeatherDisplay:10.37,2013-02-13 22:56:00,
2013-02-13 17:01:00,42.1,34.4,30.04,NNE,18,0.0,0.0,74,0.00,CLR,,0.05,WeatherDisplay:10.37,2013-02-13 23:01:00,
2013-02-13 17:06:00,42.2,34.8,30.04,NNE,18,1.1,1.1,75,0.00,CLR,,0.05,WeatherDisplay:10.37,2013-02-13 23:06:00,
2013-02-13 17:11:00,42.2,34.8,30.05,NNE,18,0.0,0.0,75,0.00,CLR,,0.05,WeatherDisplay:10.37,2013-02-13 23:11:00,
2013-02-13 17:16:00,42.1,34.1,30.04,NNE,18,0.0,0.0,73,0.00,CLR,,0.05,WeatherDisplay:10.37,2013-02-13 23:16:00,
2013-02-13 17:21:00,42.1,34.4,30.05,NNE,18,1.1,0.0,74,0.00,CLR,,0.05,WeatherDisplay:10.37,2013-02-13 23:21:00,
2013-02-13 17:26:00,42.2,34.2,30.05,NNE,18,0.0,0.0,73,0.00,CLR,,0.05,WeatherDisplay:10.37,2013-02-13 23:26:00,
2013-02-13 17:31:00,42.2,34.8,30.05,NNE,18,0.0,0.0,75,0.00,CLR,,0.05,WeatherDisplay:10.37,2013-02-13 23:31:00,
2013-02-13 17:36:00,42.2,34.2,30.06,NNE,18,0.0,0.0,73,0.00,CLR,,0.05,WeatherDisplay:10.37,2013-02-13 23:36:00,
2013-02-13 17:41:00,42.2,35.2,30.06,NNE,18,0.0,0.0,76,0.00,CLR,,0.05,WeatherDisplay:10.37,2013-02-13 23:41:00,
2013-02-13 17:46:00,42.2,35.2,30.06,NNE,18,0.0,0.0,76,0.00,CLR,,0.05,WeatherDisplay:10.37,2013-02-13 23:46:00,
2013-02-13 17:51:00,42.1,34.4,30.06,NNE,18,0.0,0.0,74,0.00,CLR,,0.05,WeatherDisplay:10.37,2013-02-13 23:51:00,
2013-02-13 17:56:00,42.1,34.7,30.06,NNE,18,0.0,0.0,75,0.00,CLR,,0.05,WeatherDisplay:10.37,2013-02-13 23:56:00,
2013-02-13 18:01:00,41.9,33.9,30.06,NNE,18,2.3,2.3,73,0.00,CLR,,0.05,WeatherDisplay:10.37,2013-02-14 00:01:00,
2013-02-13 18:06:00,42.1,34.4,30.06,NNE,18,0.0,0.0,74,0.00,CLR,,0.05,WeatherDisplay:10.37,2013-02-14 00:06:00,
2013-02-13 18:11:00,42.1,34.7,30.07,NNE,18,0.0,0.0,75,0.00,CLR,,0.05,WeatherDisplay:10.37,2013-02-14 00:11:00,
2013-02-13 18:16:00,42.1,34.4,30.07,NNE,22,0.0,0.0,74,0.00,CLR,,0.05,WeatherDisplay:10.37,2013-02-14 00:16:00,
2013-02-13 18:21:00,42.1,34.4,30.07,NNE,22,0.0,0.0,74,0.00,CLR,,0.05,WeatherDisplay:10.37,2013-02-14 00:21:00,
2013-02-13 18:26:00,41.9,33.9,30.06,NNE,22,1.1,0.0,73,0.00,CLR,,0.05,WeatherDisplay:10.37,2013-02-14 00:26:00,
2013-02-13 18:31:00,41.9,34.2,30.07,NNE,22,1.1,1.1,74,0.00,CLR,,0.05,WeatherDisplay:10.37,2013-02-14 00:31:00,
2013-02-13 18:36:00,41.9,34.2,30.07,NNE,22,0.0,0.0,74,0.00,CLR,,0.05,WeatherDisplay:10.37,2013-02-14 00:36:00,
2013-02-13 18:41:00,41.9,34.2,30.07,NNE,22,0.0,0.0,74,0.00,CLR,,0.05,WeatherDisplay:10.37,2013-02-14 00:41:00,
2013-02-13 18:46:00,41.9,34.9,30.07,NNE,22,0.0,0.0,76,0.00,CLR,,0.05,WeatherDisplay:10.37,2013-02-14 00:46:00,
2013-02-13 18:51:00,41.8,34.5,30.07,NNE,22,0.0,0.0,75,0.00,CLR,,0.05,WeatherDisplay:10.37,2013-02-14 00:51:00,
2013-02-13 18:56:00,41.8,34.8,30.07,NNE,22,0.0,0.0,76,0.00,CLR,,0.05,WeatherDisplay:10.37,2013-02-14 00:56:00,
2013-02-13 19:01:00,41.8,35.1,30.07,NNE,22,0.0,0.0,77,0.00,CLR,,0.05,WeatherDisplay:10.37,2013-02-14 01:01:00,
2013-02-13 19:06:00,41.8,35.8,30.08,NNE,22,0.0,0.0,79,0.00,CLR,,0.05,WeatherDisplay:10.37,2013-02-14 01:06:00,
2013-02-13 19:11:00,41.8,35.1,30.07,NNE,22,0.0,0.0,77,0.00,CLR,,0.05,WeatherDisplay:10.37,2013-02-14 01:11:00,
2013-02-13 19:16:00,41.8,35.4,30.08,NNE,22,0.0,0.0,78,0.00,CLR,,0.05,WeatherDisplay:10.37,2013-02-14 01:16:00,
2013-02-13 19:21:00,41.8,35.8,30.08,NNE,22,0.0,0.0,79,0.00,CLR,,0.05,WeatherDisplay:10.37,2013-02-14 01:21:00,
2013-02-13 19:26:00,41.6,34.9,30.08,NNE,22,0.0,0.0,77,0.00,CLR,,0.05,WeatherDisplay:10.37,2013-02-14 01:26:00,
2013-02-13 19:31:00,41.8,35.1,30.08,NNE,22,0.0,0.0,77,0.00,CLR,,0.05,WeatherDisplay:10.37,2013-02-14 01:31:00,
2013-02-13 19:36:00,41.6,34.6,30.08,NNE,22,1.1,0.0,76,0.00,CLR,,0.05,WeatherDisplay:10.37,2013-02-14 01:36:00,
2013-02-13 19:41:00,41.6,34.9,30.08,NNE,22,0.0,0.0,77,0.00,CLR,,0.05,WeatherDisplay:10.37,2013-02-14 01:41:00,
2013-02-13 19:46:00,41.6,34.9,30.09,NNE,22,0.0,0.0,77,0.00,CLR,,0.05,WeatherDisplay:10.37,2013-02-14 01:46:00,
2013-02-13 19:51:00,41.6,35.2,30.09,NNE,22,0.0,0.0,78,0.00,CLR,,0.05,WeatherDisplay:10.37,2013-02-14 01:51:00,
2013-02-13 19:56:00,41.6,35.2,30.09,NNE,22,0.0,0.0,78,0.00,CLR,,0.05,WeatherDisplay:10.37,2013-02-14 01:56:00,
2013-02-13 20:01:00,41.5,34.8,30.09,NNE,22,0.0,0.0,77,0.00,CLR,,0.05,WeatherDisplay:10.37,2013-02-14 02:01:00,
2013-02-13 20:06:00,41.5,35.2,30.09,NNE,22,0.0,0.0,78,0.00,CLR,,0.05,WeatherDisplay:10.37,2013-02-14 02:06:00,
2013-02-13 20:11:00,41.5,35.5,30.09,NNE,22,0.0,0.0,79,0.00,CLR,,0.05,WeatherDisplay:10.37,2013-02-14 02:11:00,
2013-02-13 20:16:00,41.5,35.8,30.09,NNE,22,1.1,1.1,80,0.00,CLR,,0.05,WeatherDisplay:10.37,2013-02-14 02:16:00,
2013-02-13 20:21:00,41.5,34.8,30.09,NNE,22,2.3,0.0,77,0.00,CLR,,0.05,WeatherDisplay:10.37,2013-02-14 02:21:00,
2013-02-13 20:26:00,41.5,34.2,30.09,NNE,22,0.0,0.1,75,0.00,CLR,,0.05,WeatherDisplay:10.37,2013-02-14 02:26:00,
2013-02-13 20:31:00,41.5,34.2,30.09,NNE,22,0.0,0.0,75,0.00,CLR,,0.05,WeatherDisplay:10.37,2013-02-14 02:31:00,
2013-02-13 20:36:00,41.5,34.5,30.10,NNE,22,0.0,0.0,76,0.00,CLR,,0.05,WeatherDisplay:10.37,2013-02-14 02:36:00,
2013-02-13 20:41:00,41.6,34.6,30.10,NNE,22,0.0,0.0,76,0.00,CLR,,0.05,WeatherDisplay:10.37,2013-02-14 02:41:00,
2013-02-13 20:46:00,41.5,34.2,30.10,NNE,22,0.0,0.0,75,0.00,CLR,,0.05,WeatherDisplay:10.37,2013-02-14 02:46:00,
2013-02-13 20:51:00,41.6,34.6,30.10,NNE,22,0.0,0.0,76,0.00,CLR,,0.05,WeatherDisplay:10.37,2013-02-14 02:51:00,
2013-02-13 20:56:00,41.6,34.6,30.10,NNE,22,0.0,0.0,76,0.00,CLR,,0.05,WeatherDisplay:10.37,2013-02-14 02:56:00,
2013-02-13 21:01:00,41.5,34.8,30.10,NNE,22,0.0,0.0,77,0.00,CLR,,0.05,WeatherDisplay:10.37,2013-02-14 03:01:00,
2013-02-13 21:06:00,41.5,34.5,30.10,NNE,22,0.0,0.0,76,0.00,CLR,,0.05,WeatherDisplay:10.37,2013-02-14 03:06:00,
2013-02-13 21:12:00,41.5,34.5,30.11,NNE,22,0.0,0.0,76,0.00,CLR,,0.05,WeatherDisplay:10.37,2013-02-14 03:12:00,
2013-02-13 21:17:00,41.5,34.2,30.11,NNE,22,0.0,0.0,75,0.00,CLR,,0.05,WeatherDisplay:10.37,2013-02-14 03:17:00,
2013-02-13 21:22:00,41.5,34.5,30.11,NNE,22,0.0,0.0,76,0.00,CLR,,0.05,WeatherDisplay:10.37,2013-02-14 03:22:00,
2013-02-13 21:27:00,41.5,34.8,30.11,NNE,22,1.1,1.1,77,0.00,CLR,,0.05,WeatherDisplay:10.37,2013-02-14 03:27:00,
2013-02-13 21:32:00,41.5,33.8,30.11,NNE,22,0.0,0.0,74,0.00,CLR,,0.05,WeatherDisplay:10.37,2013-02-14 03:32:00,
2013-02-13 21:37:00,41.5,33.8,30.11,NNE,22,2.3,2.3,74,0.00,CLR,,0.05,WeatherDisplay:10.37,2013-02-14 03:37:00,
2013-02-13 21:42:00,41.5,34.8,30.12,NNE,22,0.0,0.0,77,0.00,CLR,,0.05,WeatherDisplay:10.37,2013-02-14 03:42:00,
2013-02-13 21:47:00,41.5,34.8,30.11,NNE,22,0.0,0.0,77,0.00,CLR,,0.05,WeatherDisplay:10.37,2013-02-14 03:47:00,
2013-02-13 21:52:00,41.5,34.8,30.11,NNE,22,0.0,0.0,77,0.00,CLR,,0.05,WeatherDisplay:10.37,2013-02-14 03:52:00,
2013-02-13 21:57:00,41.3,34.3,30.12,NNE,22,0.0,0.0,76,0.00,CLR,,0.05,WeatherDisplay:10.37,2013-02-14 03:57:00,
2013-02-13 22:02:00,41.3,34.3,30.12,NNE,22,0.0,0.0,76,0.00,CLR,,0.05,WeatherDisplay:10.37,2013-02-14 04:02:00,
2013-02-13 22:07:00,41.5,34.2,30.12,NNE,22,0.0,0.0,75,0.00,CLR,,0.05,WeatherDisplay:10.37,2013-02-14 04:07:00,
2013-02-13 22:12:00,41.5,34.5,30.12,NNE,22,0.0,0.0,76,0.00,CLR,,0.05,WeatherDisplay:10.37,2013-02-14 04:12:00,
2013-02-13 22:17:00,41.5,34.8,30.12,NNE,22,0.0,0.0,77,0.00,CLR,,0.05,WeatherDisplay:10.37,2013-02-14 04:17:00,
2013-02-13 22:22:00,41.5,34.8,30.13,NNE,22,0.0,0.0,77,0.00,CLR,,0.05,WeatherDisplay:10.37,2013-02-14 04:22:00,
2013-02-13 22:27:00,41.5,35.2,30.13,NNE,22,0.0,0.0,78,0.00,CLR,,0.05,WeatherDisplay:10.37,2013-02-14 04:27:00,
2013-02-13 22:32:00,41.3,34.0,30.13,NNE,22,0.0,0.0,75,0.00,CLR,,0.05,WeatherDisplay:10.37,2013-02-14 04:32:00,
2013-02-13 22:37:00,41.3,35.0,30.13,NNE,22,0.0,0.0,78,0.00,CLR,,0.05,WeatherDisplay:10.37,2013-02-14 04:37:00,
2013-02-13 22:42:00,41.3,35.0,30.13,NNE,22,0.0,0.0,78,0.00,CLR,,0.05,WeatherDisplay:10.37,2013-02-14 04:42:00,
2013-02-13 22:47:00,41.3,35.0,30.13,NNE,22,0.0,0.0,78,0.00,CLR,,0.05,WeatherDisplay:10.37,2013-02-14 04:47:00,
2013-02-13 22:52:00,41.2,34.9,30.13,NNE,22,0.0,0.0,78,0.00,CLR,,0.05,WeatherDisplay:10.37,2013-02-14 04:52:00,
2013-02-13 22:57:00,41.2,34.5,30.13,NNE,22,0.0,0.0,77,0.00,CLR,,0.05,WeatherDisplay:10.37,2013-02-14 04:57:00,
2013-02-13 23:00:00,41.2,34.9,30.13,NNE,22,0.0,0.0,78,0.00,CLR,,0.05,WeatherDisplay:10.37,2013-02-14 05:00:00,
2013-02-13 23:01:00,41.2,34.9,30.13,NNE,22,1.1,0.0,78,0.00,CLR,,0.05,WeatherDisplay:10.37,2013-02-14 05:01:00,
2013-02-13 23:02:00,41.2,34.2,30.13,NNE,22,0.0,0.0,76,0.00,CLR,,0.05,WeatherDisplay:10.37,2013-02-14 05:02:00,
2013-02-13 23:07:00,41.2,35.2,30.13,NNE,22,0.0,0.0,79,0.00,CLR,,0.05,WeatherDisplay:10.37,2013-02-14 05:07:00,
2013-02-13 23:12:00,41.2,35.2,30.13,NNE,22,0.0,0.0,79,0.00,CLR,,0.05,WeatherDisplay:10.37,2013-02-14 05:12:00,
2013-02-13 23:17:00,41.2,35.5,30.13,NNE,22,0.0,0.0,80,0.00,CLR,,0.05,WeatherDisplay:10.37,2013-02-14 05:17:00,
2013-02-13 23:22:00,41.2,35.8,30.13,NNE,22,0.0,0.0,81,0.00,CLR,,0.05,WeatherDisplay:10.37,2013-02-14 05:22:00,
2013-02-13 23:27:00,41.1,35.7,30.13,NNE,22,0.0,0.0,81,0.00,CLR,,0.05,WeatherDisplay:10.37,2013-02-14 05:27:00,
2013-02-13 23:32:00,41.1,35.7,30.13,NNE,22,0.0,0.0,81,0.00,CLR,,0.05,WeatherDisplay:10.37,2013-02-14 05:32:00,
2013-02-13 23:37:00,40.9,34.9,30.13,NNE,22,0.0,0.0,79,0.00,CLR,,0.05,WeatherDisplay:10.37,2013-02-14 05:37:00,
2013-02-13 23:42:00,40.9,33.9,30.13,NNE,22,2.0,2.0,76,0.00,CLR,,0.05,WeatherDisplay:10.37,2013-02-14 05:42:00,
2013-02-13 23:47:00,41.1,33.8,30.13,NNE,22,1.1,1.1,75,0.00,CLR,,0.05,WeatherDisplay:10.37,2013-02-14 05:47:00,
2013-02-13 23:52:00,41.1,33.8,30.13,NNE,22,2.3,2.3,75,0.00,CLR,,0.05,WeatherDisplay:10.37,2013-02-14 05:52:00,
2013-02-13 23:57:00,41.2,33.9,30.13,NNE,22,0.0,0.0,75,0.00,CLR,,0.05,WeatherDisplay:10.37,2013-02-14 05:57:00,